Regional Weather Roundup
Issued by NWS

Home | Current Version | Previous Version | Graphics & Text | Print | Product List | Glossary Off
Versions: 1 2 3 4 5 6 7 8 9 10 11 12 13 14 15 16 17 18 19 20 21 22 23 24 25 26 27 28 29 30 31 32 33 34 35 36 37 38 39 40 41 42 43 44 45 46 47 48 49 50

722
ASUS43 KDMX 252306
RWRIA

WEATHER ROUNDUP FOR IOWA
NATIONAL WEATHER SERVICE DES MOINES IA
500 PM CST SAT FEB 25 2017

NOTE: "FAIR" INDICATES FEW OR NO CLOUDS BELOW 12,000 FEET WITH NO
SIGNIFICANT WEATHER AND/OR OBSTRUCTIONS TO VISIBILITY.

* - THESE STATIONS ARE NOT NWS STATIONS...THUS NOT UNDER NWS
QUALITY CONTROL.  THEY ALSO DO NOT REPORT WEATHER SUCH
AS PRECIPITATION OR FOG.

IAZ001>003-012>014-020>022-031>034-043>046-260000-
   NORTHWEST IOWA

CITY           SKY/WX    TMP DP  RH WIND       PRES   REMARKS
CARROLL *      SUNNY     28  18  64 SW10      29.99F WCI  19
CHEROKEE *     MOSUNNY   26  12  54 S12       29.95F WCI  16
DENISON *      MOSUNNY   28  19  69 S10       29.96F WCI  19
LE MARS *      PTSUNNY   27  16  63 S15       29.94S WCI  15
SHELDON *      CLOUDY    27  19  74 S16       29.90F WCI  14
SIOUX CITY     MOSUNNY   30  16  56 S12       29.96F WCI  20
SPENCER        CLOUDY    26  17  68 S12       29.94F WCI  16
STORM LAKE *   MOSUNNY   25  16  68 SW14      29.95F WCI  13
$$

IAZ055>058-069>071-079>083-090>094-260000-
   SOUTHWEST IOWA

CITY           SKY/WX    TMP DP  RH WIND       PRES   REMARKS
ATLANTIC *     SUNNY     32  19  59 SW14      30.00F WCI  22
AUDUBON *      MOSUNNY   30  19  64 S7        30.00F WCI  23
CLARINDA *     SUNNY     36  19  51 SW10      30.05F WCI  28
COUNCIL BLFS * MOSUNNY   32  19  59 SW10      29.99F WCI  24
CRESTON *      SUNNY     32  16  51 SW12      30.03F WCI  23
HARLAN  *      MOSUNNY   30  18  59 SW9       30.02F WCI  22
LAMONI         SUNNY     34  16  47 SW8       30.04F WCI  27
RED OAK *      PTSUNNY   34  19  55 MISG      30.02F
SHENANDOAH *   SUNNY     36  21  55 S10       30.03F WCI  28
$$

IAZ047>049-059>061-072>074-084-260000-
   CENTRAL IOWA

CITY           SKY/WX    TMP DP  RH WIND       PRES   REMARKS
AMES           CLOUDY    28  20  71 SW8       30.02F WCI  20
ANKENY *       CLEAR     32  18  55 SW9       30.04F WCI  24
BOONE *        PTSUNNY   28  16  59 SW10      30.00F WCI  19
CHARITON *     SUNNY     34  18  51 SW8       30.04F WCI  27
DES MOINES     PTSUNNY   32  18  56 SW9       30.03F WCI  24
GRINNELL*      CLOUDY    29  19  67 SW7       30.04F WCI  22
KNOXVILLE *    CLEAR     32  16  51 SW8       30.03F WCI  25
MARSHALLTOWN   MOCLDY    27  18  69 SW8       30.02F WCI  19
NEWTON *       MOCLDY    28  18  64 W7        30.03F WCI  21
PELLA *        CLEAR     32  17  53 W7        30.06F WCI  26
PERRY *          N/A     29  20  69 S7        30.02F WCI  22
$$

IAZ004>006-015-016-023>025-035-036-260000-
   NORTH CENTRAL IOWA

CITY           SKY/WX    TMP DP  RH WIND       PRES   REMARKS
ALGONA *       LGT SNOW  23  18  80 S10       29.96F WCI  12
CLARION *      CLOUDY    23  16  74 SW10      29.99F WCI  12
ESTHERVILLE    CLOUDY    24  18  77 SW13      29.93F WCI  12
FORT DODGE *   CLOUDY    25  12  58 S13       30.00S WCI  13
MASON CITY     CLOUDY    21  13  71 SW12      29.98F WCI   9
FOREST CITY *    N/A     23  16  74 SW12      29.96F WCI  12
WEBSTER CITY * CLOUDY    25  16  68 SW12      29.98F WCI  14
IOWA FALLS *   CLOUDY    25  17  72 SW6       30.01F WCI  18
$$

IAZ007>011-017>019-026>030-037>042-050>054-066-260000-
   NORTHEAST IOWA

CITY           SKY/WX    TMP DP  RH WIND       PRES   REMARKS
CEDAR RAPIDS   CLEAR     27  17  66 W13       30.02S WCI  16
CHARLES CITY * CLEAR     23  14  68 W12G18    29.99S WCI  12
CLINTON *      CLEAR     29  19  66 NW14      30.02R WCI  18
DECORAH *      CLEAR     23  12  63 W8G16     29.97R WCI  14
DUBUQUE        CLEAR     25  16  68 W12       29.98R WCI  14
MONTICELLO *   CLEAR     28  16  59 W14       30.01S WCI  17
OELWEIN *      CLEAR     25  16  68 W9        30.00F WCI  15
WATERLOO       CLEAR     25  16  68 W13       30.02F WCI  14
$$

IAZ064-065-067-068-078-260000-
   EAST CENTRAL IOWA

CITY           SKY/WX    TMP DP  RH WIND       PRES   REMARKS
DAVENPORT      CLEAR     29  18  63 NW17      30.02S WCI  17
IOWA CITY      PTCLDY    31  14  49 W12       30.06S WCI  22
MUSCATINE *    PTCLDY    30  16  55 NW13      30.06S WCI  20
QUAD CITIES    CLEAR     31  17  56 W13G21    30.03R WCI  21
$$

IAZ062-063-075>077-085>089-095>099-260000-
   SOUTHEAST IOWA

CITY           SKY/WX    TMP DP  RH WIND       PRES   REMARKS
BURLINGTON     CLOUDY    32  16  51 NW9       30.06R WCI  24
FAIRFIELD *    CLOUDY    32  14  47 NW8       30.06S WCI  25
KEOKUK *       CLOUDY    34  10  37 NW9       30.07S WCI  26
CENTERVILLE *    N/A     34  18  51 CALM      30.07F
OTTUMWA        CLOUDY    33  16  49 W12       30.06S WCI  24
WASHINGTON *   CLOUDY    30  18  59 W13       30.07S WCI  20
$$

ABBREVIATIONS USED IN REMARKS
   TC - TEMPERATURES IN CELSIUS
  WCI - WIND CHILL INDEX
   HX - HEAT INDEX
  VSB - VISIBILITY
$$





USA.gov is the U.S. government's official web portal to all federal, state and local government web resources and services.